| time (UTC) | temp C | wind direction | speed KPH | gust KPH | rain 1hr cm | rain 24hr cm | rain mn cm | humidity % | barometer mb |
| 20260504193003 | 20 | 273 | 3.2 | 19.3 | 0.00 | 0.00 | 0.00 | 36 | 1004.9 |
| 20260504192503 | 20 | 256 | 3.2 | 19.3 | 0.00 | 0.00 | 0.00 | 35 | 1005.0 |
| 20260504192003 | 20 | 241 | 1.6 | 9.7 | 0.00 | 0.00 | 0.00 | 36 | 1005.0 |
| 20260504191719 | 20 | 241 | 0.0 | 9.7 | 0.00 | 0.00 | 0.00 | 37 | 1005.2 |
| 20260504191003 | 20 | 169 | 0.0 | 6.4 | 0.00 | 0.00 | 0.00 | 35 | 1005.1 |
| 20260504190503 | 20 | 203 | 1.6 | 14.5 | 0.00 | 0.00 | 0.00 | 36 | 1005.3 |
| 20260504190003 | 19 | 235 | 3.2 | 22.5 | 0.00 | 0.00 | 0.00 | 37 | 1005.1 |
| 20260504185503 | 20 | 297 | 3.2 | 22.5 | 0.00 | 0.00 | 0.00 | 36 | 1005.2 |
| 20260504185003 | 19 | 275 | 3.2 | 20.9 | 0.00 | 0.00 | 0.00 | 36 | 1005.1 |
| 20260504184503 | 19 | 250 | 1.6 | 11.3 | 0.00 | 0.00 | 0.00 | 35 | 1005.4 |
| 20260504184003 | 19 | 282 | 3.2 | 19.3 | 0.00 | 0.00 | 0.00 | 37 | 1005.4 |
| 20260504183503 | 18 | 285 | 3.2 | 19.3 | 0.00 | 0.00 | 0.00 | 36 | 1005.3 |
| 20260504183003 | 18 | 249 | 1.6 | 16.1 | 0.00 | 0.00 | 0.00 | 36 | 1005.4 |
| 20260504182503 | 19 | 224 | 1.6 | 16.1 | 0.00 | 0.00 | 0.00 | 39 | 1005.5 |
| 20260504182003 | 18 | 224 | 3.2 | 16.1 | 0.00 | 0.00 | 0.00 | 40 | 1005.5 |
| 20260504181713 | 18 | 222 | 3.2 | 33.8 | 0.00 | 0.00 | 0.00 | 36 | 1005.5 |
| 20260504181003 | 19 | 238 | 3.2 | 33.8 | 0.00 | 0.00 | 0.00 | 37 | 1005.6 |
| 20260504180503 | 19 | 224 | 3.2 | 14.5 | 0.00 | 0.00 | 0.00 | 38 | 1005.5 |
| 20260504180003 | 20 | 238 | 3.2 | 17.7 | 0.00 | 0.00 | 0.00 | 35 | 1005.6 |
| 20260504175712 | 19 | 257 | 3.2 | 17.7 | 0.00 | 0.00 | 0.00 | 38 | 1005.5 |
| 20260504175003 | 19 | 230 | 0.0 | 11.3 | 0.00 | 0.00 | 0.00 | 38 | 1005.5 |
| 20260504174505 | 18 | 188 | 1.6 | 16.1 | 0.00 | 0.00 | 0.00 | 35 | 1005.6 |
| 20260504174003 | 18 | 198 | 1.6 | 16.1 | 0.00 | 0.00 | 0.00 | 38 | 1005.6 |
| 20260504173503 | 18 | 283 | 1.6 | 14.5 | 0.00 | 0.00 | 0.00 | 36 | 1005.6 |
| 20260504173005 | 18 | 291 | 1.6 | 14.5 | 0.00 | 0.00 | 0.00 | 36 | 1005.7 |
| 20260504172503 | 18 | 273 | 1.6 | 8.0 | 0.00 | 0.00 | 0.00 | 35 | 1005.7 |
| 20260504172003 | 18 | 256 | 1.6 | 14.5 | 0.00 | 0.00 | 0.00 | 36 | 1005.7 |
| 20260504171505 | 20 | 250 | 3.2 | 14.5 | 0.00 | 0.00 | 0.00 | 34 | 1005.7 |
| 20260504171003 | 20 | 220 | 3.2 | 14.5 | 0.00 | 0.00 | 0.00 | 36 | 1005.7 |
| 20260504170714 | 20 | 216 | 3.2 | 12.9 | 0.00 | 0.00 | 0.00 | 36 | 1005.7 |
| 20260504160215 | 18 | 237 | 4.8 | 27.4 | 0.00 | 0.00 | 0.00 | 38 | 1005.9 |
| 20260504150503 | 17 | 224 | 3.2 | 16.1 | 0.00 | 0.00 | 0.00 | 41 | 1006.7 |
| 20260504141003 | 16 | 221 | 1.6 | 9.7 | 0.00 | 0.00 | 0.00 | 40 | 1007.1 |
| 20260504140505 | 16 | 289 | 0.0 | 4.8 | 0.00 | 0.00 | 0.00 | 44 | 1007.3 |
| 20260504130503 | 12 | 172 | 0.0 | 6.4 | 0.00 | 0.03 | 0.00 | 51 | 1007.8 |
| 20260504110503 | 7 | 0 | 0.0 | 0.0 | 0.00 | 0.03 | 0.00 | 67 | 1008.4 |
| 20260504100503 | 7 | 166 | 0.0 | 3.2 | 0.00 | 0.03 | 0.00 | 65 | 1008.4 |
| 20260504082005 | 6 | 0 | 0.0 | 0.0 | 0.00 | 0.03 | 0.00 | 70 | 1008.5 |
| 20260504081503 | 6 | 0 | 0.0 | 0.0 | 0.00 | 0.03 | 0.00 | 68 | 1008.6 |
| 20260504081003 | 7 | 221 | 0.0 | 1.6 | 0.00 | 0.03 | 0.00 | 66 | 1008.4 |
| 20260504080505 | 7 | 221 | 0.0 | 1.6 | 0.00 | 0.03 | 0.00 | 65 | 1008.4 |
| 20260504050503 | 2 | 0 | 0.0 | 0.0 | 0.00 | 0.03 | 0.00 | 77 | 1008.5 |
| 20260504050005 | 2 | 0 | 0.0 | 0.0 | 0.00 | 0.03 | 0.00 | 75 | 1008.5 |
| 20260504045503 | 2 | 0 | 0.0 | 0.0 | 0.00 | 0.03 | 0.00 | 78 | 1008.6 |
| 20260504045003 | 2 | 0 | 0.0 | 0.0 | 0.00 | 0.03 | 0.00 | 78 | 1008.6 |
| 20260504044505 | 2 | 0 | 0.0 | 0.0 | 0.00 | 0.03 | 0.00 | 77 | 1008.6 |
| 20260504044003 | 1 | 0 | 0.0 | 0.0 | 0.00 | 0.03 | 0.00 | 77 | 1008.6 |
| 20260504043503 | 1 | 0 | 0.0 | 0.0 | 0.00 | 0.03 | 0.00 | 78 | 1008.7 |
| 20260504043214 | 1 | 0 | 0.0 | 0.0 | 0.00 | 0.03 | 0.00 | 77 | 1008.7 |
| 20260504042503 | 2 | 0 | 0.0 | 0.0 | 0.00 | 0.03 | 0.00 | 76 | 1008.7 |
| 20260504042003 | 2 | 0 | 0.0 | 0.0 | 0.00 | 0.03 | 0.00 | 75 | 1008.5 |
| 20260504041504 | 2 | 0 | 0.0 | 0.0 | 0.00 | 0.03 | 0.00 | 75 | 1008.6 |
| 20260504041212 | 2 | 0 | 0.0 | 0.0 | 0.00 | 0.03 | 0.00 | 75 | 1008.5 |
| 20260504040503 | 2 | 0 | 0.0 | 0.0 | 0.00 | 0.03 | 0.00 | 75 | 1008.5 |
| 20260504040005 | 2 | 0 | 0.0 | 0.0 | 0.00 | 0.03 | 0.00 | 75 | 1008.4 |
| 20260504035503 | 2 | 0 | 0.0 | 0.0 | 0.00 | 0.03 | 0.03 | 75 | 1008.4 |
| 20260504035003 | 2 | 0 | 0.0 | 0.0 | 0.00 | 0.03 | 0.03 | 76 | 1008.4 |
| 20260504034503 | 2 | 0 | 0.0 | 0.0 | 0.00 | 0.03 | 0.03 | 76 | 1008.5 |
| 20260504034003 | 2 | 0 | 0.0 | 0.0 | 0.00 | 0.03 | 0.03 | 76 | 1008.5 |
| 20260504033503 | 2 | 0 | 0.0 | 0.0 | 0.00 | 0.03 | 0.03 | 78 | 1008.5 |
| 20260504033003 | 2 | 0 | 0.0 | 0.0 | 0.00 | 0.03 | 0.03 | 77 | 1008.5 |
| 20260504032503 | 2 | 0 | 0.0 | 0.0 | 0.00 | 0.03 | 0.03 | 75 | 1008.4 |
| 20260504032003 | 2 | 0 | 0.0 | 0.0 | 0.00 | 0.03 | 0.03 | 75 | 1008.3 |
| 20260504031503 | 2 | 0 | 0.0 | 0.0 | 0.00 | 0.03 | 0.03 | 75 | 1008.3 |
| 20260504031003 | 2 | 0 | 0.0 | 0.0 | 0.00 | 0.03 | 0.03 | 74 | 1008.3 |
| 20260504030503 | 2 | 0 | 0.0 | 0.0 | 0.00 | 0.03 | 0.03 | 74 | 1008.3 |
| 20260504030214 | 2 | 0 | 0.0 | 0.0 | 0.00 | 0.03 | 0.03 | 74 | 1008.2 |
| 20260504025713 | 2 | 0 | 0.0 | 0.0 | 0.00 | 0.03 | 0.03 | 74 | 1008.2 |
| 20260504025214 | 2 | 0 | 0.0 | 0.0 | 0.00 | 0.03 | 0.03 | 73 | 1008.2 |
| 20260504024713 | 2 | 0 | 0.0 | 0.0 | 0.00 | 0.03 | 0.03 | 72 | 1008.3 |
| 20260504024003 | 3 | 0 | 0.0 | 0.0 | 0.00 | 0.03 | 0.03 | 71 | 1008.3 |
| 20260504023503 | 3 | 0 | 0.0 | 0.0 | 0.00 | 0.03 | 0.03 | 70 | 1008.4 |
| 20260504023003 | 3 | 0 | 0.0 | 0.0 | 0.00 | 0.03 | 0.03 | 70 | 1008.4 |
| 20260504022503 | 3 | 0 | 0.0 | 0.0 | 0.00 | 0.03 | 0.03 | 68 | 1008.4 |
| 20260504022003 | 3 | 0 | 0.0 | 0.0 | 0.00 | 0.03 | 0.03 | 68 | 1008.4 |
| 20260504021503 | 3 | 0 | 0.0 | 0.0 | 0.00 | 0.05 | 0.03 | 67 | 1008.4 |
| 20260504021003 | 3 | 0 | 0.0 | 0.0 | 0.00 | 0.05 | 0.03 | 66 | 1008.3 |
| 20260504020713 | 3 | 0 | 0.0 | 0.0 | 0.00 | 0.05 | 0.03 | 65 | 1008.3 |
| 20260504020003 | 4 | 0 | 0.0 | 0.0 | 0.00 | 0.05 | 0.03 | 63 | 1008.2 |
| 20260504015503 | 4 | 0 | 0.0 | 0.0 | 0.00 | 0.05 | 0.03 | 62 | 1008.2 |
| 20260504015003 | 5 | 0 | 0.0 | 0.0 | 0.00 | 0.05 | 0.03 | 62 | 1008.2 |
| 20260504014505 | 4 | 0 | 0.0 | 0.0 | 0.00 | 0.05 | 0.03 | 61 | 1008.1 |
| 20260504014003 | 5 | 0 | 0.0 | 0.0 | 0.00 | 0.05 | 0.03 | 60 | 1008.1 |
| 20260504013503 | 5 | 0 | 0.0 | 0.0 | 0.00 | 0.05 | 0.03 | 59 | 1008.0 |
| 20260504013005 | 5 | 0 | 0.0 | 0.0 | 0.00 | 0.05 | 0.03 | 58 | 1008.0 |
| 20260504012503 | 5 | 0 | 0.0 | 0.0 | 0.00 | 0.05 | 0.03 | 61 | 1008.0 |
| 20260504012003 | 5 | 0 | 0.0 | 0.0 | 0.00 | 0.05 | 0.03 | 58 | 1007.9 |
| 20260504011506 | 6 | 0 | 0.0 | 0.0 | 0.00 | 0.05 | 0.03 | 56 | 1007.8 |
| 20260504011003 | 6 | 0 | 0.0 | 0.0 | 0.00 | 0.05 | 0.03 | 56 | 1007.7 |
| 20260504010503 | 5 | 0 | 0.0 | 0.0 | 0.00 | 0.05 | 0.03 | 56 | 1007.6 |
| 20260504010005 | 5 | 0 | 0.0 | 0.0 | 0.00 | 0.05 | 0.03 | 57 | 1007.6 |
| 20260504005503 | 6 | 0 | 0.0 | 0.0 | 0.00 | 0.05 | 0.03 | 56 | 1007.5 |
| 20260504005003 | 6 | 0 | 0.0 | 0.0 | 0.00 | 0.05 | 0.03 | 57 | 1007.5 |
| 20260504004714 | 6 | 0 | 0.0 | 0.0 | 0.00 | 0.05 | 0.03 | 56 | 1007.4 |
| 20260504004213 | 6 | 0 | 0.0 | 0.0 | 0.00 | 0.05 | 0.03 | 55 | 1007.4 |
| 20260504003503 | 6 | 0 | 0.0 | 0.0 | 0.00 | 0.05 | 0.03 | 55 | 1007.3 |
| 20260504003215 | 6 | 0 | 0.0 | 0.0 | 0.00 | 0.05 | 0.03 | 55 | 1007.3 |
| 20260504002503 | 6 | 0 | 0.0 | 0.0 | 0.00 | 0.05 | 0.03 | 54 | 1007.3 |
| 20260504002003 | 6 | 0 | 0.0 | 0.0 | 0.00 | 0.05 | 0.03 | 53 | 1007.2 |
| 20260504001504 | 7 | 0 | 0.0 | 0.0 | 0.00 | 0.05 | 0.03 | 52 | 1007.1 |
| 20260504001003 | 7 | 0 | 0.0 | 0.0 | 0.00 | 0.05 | 0.03 | 50 | 1007.1 |
| 20260504000503 | 7 | 0 | 0.0 | 0.0 | 0.00 | 0.05 | 0.03 | 49 | 1007.0 |
| 20260504000005 | 7 | 0 | 0.0 | 0.0 | 0.00 | 0.05 | 0.03 | 49 | 1006.9 |
| 20260503235503 | 8 | 0 | 0.0 | 0.0 | 0.00 | 0.05 | 0.03 | 49 | 1006.9 |
| 20260503235003 | 8 | 0 | 0.0 | 0.0 | 0.00 | 0.05 | 0.03 | 48 | 1007.0 |
| 20260503234505 | 8 | 0 | 0.0 | 0.0 | 0.00 | 0.05 | 0.03 | 48 | 1006.9 |
| 20260503234003 | 8 | 28 | 0.0 | 1.6 | 0.00 | 0.05 | 0.03 | 48 | 1006.9 |
| 20260503233503 | 8 | 28 | 0.0 | 1.6 | 0.00 | 0.05 | 0.03 | 48 | 1006.9 |
| 20260503233006 | 8 | 228 | 0.0 | 1.6 | 0.00 | 0.05 | 0.03 | 48 | 1006.8 |
| 20260503232503 | 8 | 350 | 0.0 | 8.0 | 0.00 | 0.05 | 0.03 | 49 | 1006.9 |
| 20260503232003 | 8 | 351 | 0.0 | 8.0 | 0.00 | 0.05 | 0.03 | 47 | 1006.8 |
| 20260503231503 | 8 | 253 | 0.0 | 1.6 | 0.00 | 0.05 | 0.03 | 48 | 1006.8 |
| 20260503231003 | 8 | 0 | 0.0 | 0.0 | 0.00 | 0.05 | 0.03 | 52 | 1006.7 |
| 20260503230503 | 8 | 352 | 1.6 | 17.7 | 0.00 | 0.05 | 0.03 | 49 | 1006.7 |
| 20260503230212 | 8 | 338 | 3.2 | 17.7 | 0.00 | 0.08 | 0.03 | 47 | 1006.7 |
| 20260503225503 | 8 | 314 | 1.6 | 12.9 | 0.00 | 0.08 | 0.03 | 46 | 1006.7 |
| 20260503225003 | 8 | 316 | 1.6 | 12.9 | 0.00 | 0.10 | 0.03 | 47 | 1006.6 |
| 20260503224503 | 8 | 328 | 1.6 | 11.3 | 0.00 | 0.10 | 0.03 | 49 | 1006.6 |
| 20260503224003 | 8 | 332 | 1.6 | 11.3 | 0.00 | 0.10 | 0.03 | 50 | 1006.6 |
| 20260503223715 | 8 | 323 | 1.6 | 9.7 | 0.00 | 0.10 | 0.03 | 46 | 1006.5 |
| 20260503223003 | 8 | 359 | 1.6 | 16.1 | 0.00 | 0.13 | 0.03 | 48 | 1006.5 |
| 20260503222503 | 8 | 339 | 1.6 | 16.1 | 0.00 | 0.13 | 0.03 | 46 | 1006.5 |
| 20260503222212 | 8 | 282 | 1.6 | 14.5 | 0.00 | 0.13 | 0.03 | 45 | 1006.4 |
| 20260503221503 | 9 | 326 | 3.2 | 17.7 | 0.00 | 0.13 | 0.03 | 46 | 1006.4 |
| 20260503221003 | 9 | 4 | 1.6 | 17.7 | 0.00 | 0.13 | 0.03 | 48 | 1006.4 |
| 20260503220503 | 9 | 351 | 3.2 | 17.7 | 0.00 | 0.13 | 0.03 | 45 | 1006.5 |
| 20260503220214 | 9 | 345 | 3.2 | 17.7 | 0.00 | 0.13 | 0.03 | 47 | 1006.4 |
| 20260503215503 | 9 | 331 | 1.6 | 17.7 | 0.00 | 0.13 | 0.03 | 46 | 1006.3 |
| 20260503215003 | 9 | 337 | 3.2 | 17.7 | 0.00 | 0.13 | 0.03 | 45 | 1006.2 |
| 20260503214503 | 9 | 322 | 1.6 | 9.7 | 0.00 | 0.15 | 0.03 | 46 | 1006.3 |
| 20260503214003 | 10 | 326 | 1.6 | 12.9 | 0.00 | 0.18 | 0.03 | 46 | 1006.2 |
| 20260503213713 | 10 | 328 | 3.2 | 16.1 | 0.00 | 0.20 | 0.03 | 43 | 1006.1 |
| 20260503213003 | 10 | 344 | 1.6 | 16.1 | 0.00 | 0.25 | 0.03 | 42 | 1006.0 |
| 20260503212505 | 10 | 337 | 1.6 | 12.9 | 0.00 | 0.25 | 0.03 | 44 | 1006.1 |
| 20260503212003 | 10 | 251 | 3.2 | 14.5 | 0.00 | 0.25 | 0.03 | 43 | 1006.0 |
| 20260503211503 | 10 | 247 | 4.8 | 17.7 | 0.00 | 0.28 | 0.03 | 43 | 1005.9 |
| 20260503211008 | 10 | 283 | 3.2 | 17.7 | 0.00 | 0.28 | 0.03 | 42 | 1005.9 |
| 20260503210508 | 10 | 310 | 3.2 | 17.7 | 0.00 | 0.28 | 0.03 | 43 | 1005.8 |
| 20260503210003 | 10 | 325 | 4.8 | 20.9 | 0.00 | 0.30 | 0.03 | 43 | 1005.7 |
| 20260503205503 | 10 | 313 | 4.8 | 20.9 | 0.00 | 0.33 | 0.03 | 42 | 1005.8 |
| 20260503205003 | 10 | 296 | 3.2 | 16.1 | 0.00 | 0.36 | 0.03 | 42 | 1005.7 |
| 20260503204503 | 10 | 339 | 3.2 | 19.3 | 0.00 | 0.38 | 0.03 | 47 | 1005.7 |
| 20260503204003 | 10 | 337 | 4.8 | 19.3 | 0.00 | 0.41 | 0.03 | 41 | 1005.6 |
| 20260503203503 | 10 | 338 | 4.8 | 17.7 | 0.00 | 0.43 | 0.03 | 42 | 1005.5 |
| 20260503203214 | 10 | 335 | 4.8 | 17.7 | 0.00 | 0.43 | 0.03 | 42 | 1005.5 |
| 20260503202503 | 10 | 333 | 3.2 | 19.3 | 0.00 | 0.46 | 0.03 | 46 | 1005.5 |
| 20260503202003 | 10 | 336 | 3.2 | 20.9 | 0.00 | 0.46 | 0.03 | 44 | 1005.5 |
| 20260503201503 | 10 | 351 | 4.8 | 20.9 | 0.00 | 0.46 | 0.03 | 45 | 1005.5 |
| 20260503201003 | 10 | 345 | 4.8 | 40.2 | 0.00 | 0.46 | 0.03 | 44 | 1005.4 |
| 20260503200503 | 10 | 351 | 8.0 | 40.2 | 0.00 | 0.46 | 0.03 | 40 | 1005.5 |
| 20260503200004 | 10 | 359 | 9.7 | 25.7 | 0.00 | 0.46 | 0.03 | 42 | 1005.5 |
| 20260503195503 | 10 | 5 | 8.0 | 22.5 | 0.00 | 0.46 | 0.03 | 40 | 1005.4 |
| 20260503195003 | 10 | 356 | 4.8 | 20.9 | 0.00 | 0.46 | 0.03 | 47 | 1005.5 |
| 20260503194505 | 10 | 350 | 6.4 | 19.3 | 0.00 | 0.48 | 0.03 | 42 | 1005.4 |
| 20260503194003 | 10 | 347 | 4.8 | 20.9 | 0.00 | 0.51 | 0.03 | 43 | 1005.5 |
| 20260503193503 | 10 | 347 | 8.0 | 25.7 | 0.00 | 0.53 | 0.03 | 46 | 1005.4 |